When you browse on this site, cookies collect data to enhance your experience and personalize the content and advertising you see.
Visit our Privacy Policy to learn more. By continuing to use the site, you agree to this use of cookies and data.
  • In Hungary
  • List of Countries
  • For 7 days
  • Water Temperature
  • Satellite Maps
  • Weather Map
  • News
  • Weather Widgets
  • user-avatar
    Login

    Hourly Weather Biatris

    Today, 21 April, Sunday

    Time Temperature Precipitation Wind Pressure Humidity
    00:00 +17°C° 0 mm 2 mps 654 mmHg 59%
    01:00 +18°C° 0 mm 1 mps 654 mmHg 62%
    02:00 +16°C° 0 mm 1 mps 654 mmHg 65%
    03:00 +16°C° 0 mm 1 mps 653 mmHg 67%
    04:00 +15°C° 0 mm 1 mps 653 mmHg 69%
    05:00 +15°C° 0 mm 1 mps 653 mmHg 71%
    06:00 +18°C° 0 mm 1 mps 654 mmHg 65%
    07:00 +19°C° 0 mm 1 mps 654 mmHg 59%
    08:00 +21°C° 0 mm 1 mps 655 mmHg 52%
    09:00 +24°C° 0 mm 1 mps 656 mmHg 44%
    10:00 +26°C° 0 mm 1 mps 656 mmHg 37%
    11:00 +29°C° 0 mm 1 mps 656 mmHg 29%
    12:00 +30°C° 0 mm 1 mps 656 mmHg 27%
    13:00 +30°C° 0 mm 1 mps 655 mmHg 24%
    14:00 +30°C° 0 mm 2 mps 655 mmHg 20%
    15:00 +29°C° 0 mm 2 mps 655 mmHg 23%
    16:00 +28°C° 0 mm 2 mps 654 mmHg 27%
    17:00 +27°C° 0 mm 3 mps 654 mmHg 30%
    18:00 +25°C° 0 mm 3 mps 654 mmHg 36%
    19:00 +22°C° 0 mm 3 mps 654 mmHg 41%
    20:00 +20°C° 0 mm 3 mps 653 mmHg 47%
    21:00 +19°C° 0 mm 3 mps 653 mmHg 54%
    22:00 +18°C° 0 mm 3 mps 654 mmHg 61%
    23:00 +17°C° 0 mm 3 mps 654 mmHg 67%

    Tomorrow, 22 April, Monday

    Time Temperature Precipitation Wind Pressure Humidity
    00:00 +17°C° 0 mm 3 mps 653 mmHg 72%
    01:00 +16°C° 0 mm 2 mps 653 mmHg 77%
    02:00 +16°C° 0 mm 2 mps 653 mmHg 82%
    03:00 +15°C° 0 mm 2 mps 653 mmHg 85%
    04:00 +15°C° 0 mm 2 mps 653 mmHg 88%
    05:00 +15°C° 0 mm 2 mps 653 mmHg 91%
    06:00 +16°C° 0 mm 3 mps 653 mmHg 85%
    07:00 +17°C° 0 mm 3 mps 654 mmHg 80%
    08:00 +18°C° 0 mm 3 mps 654 mmHg 75%
    09:00 +20°C° 0 mm 3 mps 655 mmHg 63%
    10:00 +24°C° 0 mm 3 mps 656 mmHg 52%
    11:00 +26°C° 0 mm 3 mps 656 mmHg 40%
    12:00 +27°C° 0 mm 3 mps 656 mmHg 36%
    13:00 +28°C° 0 mm 3 mps 655 mmHg 33%
    14:00 +29°C° 0 mm 2 mps 655 mmHg 29%
    15:00 +28°C° 0 mm 3 mps 654 mmHg 33%
    16:00 +27°C° 0 mm 3 mps 654 mmHg 37%
    17:00 +26°C° 0 mm 3 mps 654 mmHg 42%
    18:00 +23°C° 0 mm 4 mps 654 mmHg 52%
    19:00 +21°C° 0 mm 4 mps 654 mmHg 61%
    20:00 +19°C° 0 mm 4 mps 654 mmHg 71%
    21:00 +18°C° 0 mm 4 mps 654 mmHg 76%
    22:00 +17°C° 0 mm 4 mps 654 mmHg 80%
    23:00 +17°C° 0 mm 3 mps 654 mmHg 85%

    Day after tomorrow, 23 April, Tuesday

    Time Temperature Precipitation Wind Pressure Humidity
    00:00 +16°C° 0 mm 3 mps 654 mmHg 88%
    01:00 +16°C° 0 mm 3 mps 653 mmHg 90%
    02:00 +14°C° 0 mm 3 mps 653 mmHg 93%
    03:00 +14°C° 0 mm 3 mps 653 mmHg 93%
    04:00 +15°C° 0 mm 2 mps 653 mmHg 93%
    05:00 +15°C° 0 mm 2 mps 653 mmHg 93%
    06:00 +16°C° 0 mm 3 mps 654 mmHg 86%
    07:00 +17°C° 0 mm 3 mps 655 mmHg 78%
    08:00 +18°C° 0 mm 3 mps 655 mmHg 70%
    09:00 +21°C° 0 mm 3 mps 656 mmHg 59%
    10:00 +24°C° 0 mm 3 mps 656 mmHg 49%
    11:00 +27°C° 0 mm 3 mps 657 mmHg 38%
    12:00 +27°C° 0 mm 2 mps 657 mmHg 36%
    13:00 +28°C° 0 mm 2 mps 656 mmHg 33%
    14:00 +29°C° 0 mm 2 mps 656 mmHg 30%
    15:00 +28°C° 0 mm 2 mps 655 mmHg 34%
    16:00 +27°C° 0 mm 3 mps 655 mmHg 38%
    17:00 +27°C° 0 mm 3 mps 654 mmHg 41%
    18:00 +25°C° 0 mm 3 mps 654 mmHg 51%
    19:00 +21°C° 0 mm 4 mps 654 mmHg 61%
    20:00 +19°C° 0 mm 4 mps 654 mmHg 70%
    21:00 +19°C° 0 mm 4 mps 655 mmHg 74%
    22:00 +18°C° 0 mm 4 mps 655 mmHg 78%
    23:00 +18°C° 0 mm 3 mps 655 mmHg 82%

    24 April, Wednesday

    Time Temperature Precipitation Wind Pressure Humidity
    00:00 +17°C° 0 mm 3 mps 655 mmHg 85%
    01:00 +17°C° 0 mm 3 mps 655 mmHg 89%
    02:00 +17°C° 0 mm 2 mps 654 mmHg 92%
    03:00 +16°C° 0 mm 2 mps 654 mmHg 94%
    04:00 +16°C° 0 mm 2 mps 654 mmHg 95%
    05:00 +16°C° 0 mm 2 mps 654 mmHg 96%
    06:00 +17°C° 0 mm 2 mps 655 mmHg 90%
    07:00 +18°C° 0 mm 3 mps 655 mmHg 84%
    08:00 +19°C° 0 mm 3 mps 656 mmHg 77%
    09:00 +22°C° 0 mm 3 mps 656 mmHg 66%
    10:00 +25°C° 0 mm 3 mps 657 mmHg 55%
    11:00 +27°C° 0 mm 3 mps 657 mmHg 44%
    12:00 +28°C° 0 mm 3 mps 657 mmHg 40%
    13:00 +29°C° 0 mm 2 mps 656 mmHg 36%
    14:00 +30°C° 0 mm 2 mps 656 mmHg 33%
    15:00 +29°C° 0 mm 3 mps 655 mmHg 37%
    16:00 +28°C° 0 mm 3 mps 655 mmHg 41%
    17:00 +27°C° 0 mm 3 mps 655 mmHg 45%
    18:00 +25°C° 0 mm 4 mps 655 mmHg 55%
    19:00 +22°C° 0 mm 4 mps 655 mmHg 65%
    20:00 +20°C° 0 mm 4 mps 655 mmHg 75%
    21:00 +19°C° 0 mm 3 mps 655 mmHg 78%
    22:00 +18°C° 0 mm 3 mps 655 mmHg 81%
    23:00 +18°C° 0 mm 2 mps 655 mmHg 84%

    25 April, Thursday

    Time Temperature Precipitation Wind Pressure Humidity
    00:00 +17°C° 0 mm 2 mps 654 mmHg 87%
    01:00 +17°C° 0 mm 2 mps 654 mmHg 89%
    02:00 +16°C° 0 mm 1 mps 654 mmHg 92%
    03:00 +16°C° 0 mm 1 mps 654 mmHg 93%
    04:00 +16°C° 0 mm 1 mps 654 mmHg 94%
    05:00 +15°C° 0 mm 1 mps 654 mmHg 95%
    06:00 +18°C° 0 mm 1 mps 654 mmHg 89%
    07:00 +19°C° 0 mm 1 mps 655 mmHg 82%
    08:00 +20°C° 0 mm 2 mps 656 mmHg 76%
    09:00 +23°C° 0 mm 1 mps 656 mmHg 66%
    10:00 +26°C° 0 mm 1 mps 656 mmHg 56%
    11:00 +28°C° 0 mm 1 mps 657 mmHg 46%
    12:00 +29°C° 0 mm 1 mps 656 mmHg 42%
    13:00 +30°C° 0 mm 2 mps 655 mmHg 37%
    14:00 +31°C° 0 mm 2 mps 655 mmHg 33%
    15:00 +30°C° 0 mm 2 mps 654 mmHg 35%
    16:00 +29°C° 0 mm 2 mps 654 mmHg 38%
    17:00 +28°C° 0 mm 3 mps 654 mmHg 40%
    18:00 +26°C° 0 mm 3 mps 654 mmHg 50%
    19:00 +24°C° 0 mm 3 mps 654 mmHg 60%
    20:00 +21°C° 0 mm 3 mps 653 mmHg 70%
    21:00 +20°C° 0 mm 3 mps 653 mmHg 75%
    22:00 +19°C° 0 mm 3 mps 653 mmHg 79%
    23:00 +18°C° 0 mm 2 mps 653 mmHg 84%

    26 April, Friday

    Time Temperature Precipitation Wind Pressure Humidity
    00:00 +18°C° 0 mm 2 mps 653 mmHg 85%
    01:00 +18°C° 0 mm 2 mps 653 mmHg 87%
    02:00 +18°C° 0 mm 1 mps 653 mmHg 89%
    03:00 +18°C° 0 mm 1 mps 653 mmHg 91%
    04:00 +18°C° 0 mm 1 mps 652 mmHg 92%
    05:00 +16°C° 0 mm 1 mps 652 mmHg 94%
    06:00 +19°C° 0 mm 1 mps 653 mmHg 86%
    07:00 +21°C° 0 mm 1 mps 654 mmHg 79%
    08:00 +21°C° 0 mm 0 mps 655 mmHg 71%
    09:00 +25°C° 0 mm 1 mps 655 mmHg 59%
    10:00 +27°C° 0 mm 1 mps 655 mmHg 47%
    11:00 +30°C° 0 mm 1 mps 656 mmHg 35%
    12:00 +31°C° 0 mm 2 mps 655 mmHg 32%
    13:00 +31°C° 0 mm 2 mps 654 mmHg 28%
    14:00 +32°C° 0 mm 2 mps 654 mmHg 24%
    15:00 +31°C° 0 mm 2 mps 654 mmHg 26%
    16:00 +30°C° 0 mm 3 mps 654 mmHg 28%
    17:00 +29°C° 0 mm 3 mps 653 mmHg 31%
    18:00 +27°C° 0 mm 3 mps 654 mmHg 36%
    19:00 +25°C° 0 mm 3 mps 654 mmHg 42%
    20:00 +22°C° 0 mm 3 mps 654 mmHg 47%
    21:00 +21°C° 0 mm 3 mps 654 mmHg 50%
    22:00 +20°C° 0 mm 3 mps 653 mmHg 53%
    23:00 +19°C° 0 mm 2 mps 653 mmHg 56%
    Show more